This is the latest recevied weather packets stored in our database for station/object NO4D. If no packets are shown the sender has not sent any weather packets the latest 10 day(s).
| Time | Temp. | Humidity | Pressure | Rain* | Wind** | Luminosity | Snow |
|---|---|---|---|---|---|---|---|
| 1778263917 | 20.56° C | 54% | 1017 hPa | 0 mm | - | 707 W/m² | - |
| 1778263614 | 20.56° C | 55% | 1016.7 hPa | 0 mm | - | 711 W/m² | - |
| 1778263311 | 20.56° C | 53% | 1016.7 hPa | 0 mm | - | 331 W/m² | - |
| 1778263007 | 21.11° C | 58% | 1016.7 hPa | 0 mm | - | 599 W/m² | - |
| 1778262704 | 21.67° C | 51% | 1016.9 hPa | 0 mm | - | 927 W/m² | - |
| 1778262402 | 21.11° C | 58% | 1016.9 hPa | 0 mm | - | 823 W/m² | - |
| 1778262098 | 20.56° C | 57% | 1017.1 hPa | 0 mm | - | 880 W/m² | - |
| 1778261795 | 20.56° C | 54% | 1017 hPa | 0 mm | - | 861 W/m² | - |
| 1778261491 | 20° C | 54% | 1017.3 hPa | 0 mm | - | 455 W/m² | - |
| 1778261188 | 20.56° C | 56% | 1017 hPa | 0 mm | - | 774 W/m² | - |
| 1778260885 | 20.56° C | 54% | 1017.2 hPa | 0 mm | - | 903 W/m² | - |
| 1778260581 | 20° C | 55% | 1017.3 hPa | 0 mm | - | 908 W/m² | - |
| 1778260278 | 20.56° C | 57% | 1017.6 hPa | 0 mm | - | 879 W/m² | - |
| 1778259975 | 20.56° C | 53% | 1017.9 hPa | 0 mm | - | 840 W/m² | - |
| 1778259673 | 20° C | 53% | 1017.6 hPa | 0 mm | - | 860 W/m² | - |
| 1778259369 | 19.44° C | 56% | 1017.6 hPa | 0 mm | - | 875 W/m² | - |
| 1778259066 | 18.89° C | 56% | 1017.5 hPa | 0 mm | - | 310 W/m² | - |
| 1778258763 | 18.89° C | 58% | 1017.9 hPa | 0 mm | - | 299 W/m² | - |
| 1778258460 | 18.89° C | 59% | 1017.7 hPa | 0 mm | - | 241 W/m² | - |
| 1778258157 | 18.89° C | 56% | 1018 hPa | 0 mm | - | 221 W/m² | - |
| 1778257854 | 18.89° C | 59% | 1018 hPa | 0 mm | - | 877 W/m² | - |
| 1778257551 | 18.33° C | 60% | 1018.1 hPa | 0 mm | - | 242 W/m² | - |
| 1778257248 | 19.44° C | 58% | 1018.1 hPa | 0 mm | - | 208 W/m² | - |
| 1778256944 | 20° C | 55% | 1018.1 hPa | 0 mm | - | 277 W/m² | - |
| 1778256642 | 19.44° C | 55% | 1018.1 hPa | 0 mm | - | 232 W/m² | - |
* Rain latest hour (hover to see other rain measurements)
** Current wind speed in m/s (hover to see current wind gust speed)